| time (UTC) | temp C | wind direction | speed KPH | gust KPH | rain 1hr cm | rain 24hr cm | rain mn cm | humidity % | barometer mb |
| 20260507162503 | 20 | 43 | 11.3 | 20.9 | 0.00 | 0.00 | 0.00 | 65 | 1010.8 |
| 20260507162002 | 20 | 45 | 12.9 | 22.5 | 0.00 | 0.00 | 0.00 | 65 | 1010.7 |
| 20260507161503 | 20 | 55 | 11.3 | 24.1 | 0.00 | 0.00 | 0.00 | 64 | 1010.7 |
| 20260507161002 | 20 | 56 | 11.3 | 24.1 | 0.00 | 0.00 | 0.00 | 63 | 1010.7 |
| 20260507160503 | 20 | 54 | 9.7 | 19.3 | 0.00 | 0.00 | 0.00 | 63 | 1010.7 |
| 20260507160002 | 21 | 58 | 11.3 | 22.5 | 0.00 | 0.00 | 0.00 | 62 | 1010.7 |
| 20260507155502 | 21 | 58 | 11.3 | 22.5 | 0.00 | 0.00 | 0.00 | 63 | 1010.7 |
| 20260507155002 | 21 | 65 | 12.9 | 22.5 | 0.00 | 0.00 | 0.00 | 60 | 1010.5 |
| 20260507154503 | 21 | 84 | 12.9 | 20.9 | 0.00 | 0.00 | 0.00 | 60 | 1010.5 |
| 20260507154002 | 21 | 92 | 12.9 | 24.1 | 0.00 | 0.00 | 0.00 | 51 | 1010.5 |
| 20260507153502 | 21 | 81 | 12.9 | 25.7 | 0.00 | 0.00 | 0.00 | 52 | 1010.4 |
| 20260507153003 | 21 | 68 | 12.9 | 25.7 | 0.00 | 0.00 | 0.00 | 57 | 1010.4 |
| 20260507152503 | 21 | 66 | 11.3 | 22.5 | 0.00 | 0.00 | 0.00 | 59 | 1010.2 |
| 20260507152003 | 21 | 89 | 12.9 | 20.9 | 0.00 | 0.00 | 0.00 | 59 | 1010.2 |
| 20260507151503 | 21 | 105 | 9.7 | 20.9 | 0.00 | 0.00 | 0.00 | 59 | 1010.1 |
| 20260507151003 | 21 | 107 | 8.0 | 24.1 | 0.00 | 0.00 | 0.00 | 58 | 1009.9 |
| 20260507150503 | 21 | 81 | 12.9 | 27.4 | 0.00 | 0.00 | 0.00 | 58 | 1009.9 |
| 20260507150002 | 21 | 58 | 12.9 | 27.4 | 0.00 | 0.00 | 0.00 | 61 | 1010.0 |
| 20260507145503 | 21 | 63 | 12.9 | 27.4 | 0.00 | 0.00 | 0.00 | 61 | 1010.2 |
| 20260507145002 | 21 | 71 | 14.5 | 27.4 | 0.00 | 0.00 | 0.00 | 60 | 1010.2 |
| 20260507144503 | 21 | 87 | 14.5 | 27.4 | 0.00 | 0.00 | 0.00 | 59 | 1010.5 |
| 20260507144003 | 22 | 105 | 16.1 | 29.0 | 0.00 | 0.00 | 0.00 | 52 | 1010.5 |
| 20260507143503 | 22 | 106 | 17.7 | 29.0 | 0.00 | 0.00 | 0.00 | 51 | 1010.5 |
| 20260507143003 | 22 | 103 | 17.7 | 29.0 | 0.00 | 0.00 | 0.00 | 53 | 1010.4 |
| 20260507142502 | 22 | 98 | 16.1 | 29.0 | 0.00 | 0.00 | 0.00 | 52 | 1010.6 |
| 20260507142003 | 22 | 101 | 16.1 | 29.0 | 0.00 | 0.00 | 0.00 | 52 | 1010.6 |
| 20260507141503 | 22 | 110 | 17.7 | 29.0 | 0.00 | 0.00 | 0.00 | 51 | 1010.5 |
| 20260507141003 | 22 | 104 | 17.7 | 33.8 | 0.00 | 0.00 | 0.00 | 51 | 1010.5 |
| 20260507140503 | 22 | 95 | 17.7 | 33.8 | 0.00 | 0.00 | 0.00 | 51 | 1010.5 |
| 20260507140003 | 22 | 97 | 19.3 | 33.8 | 0.00 | 0.00 | 0.00 | 51 | 1010.5 |
| 20260507135503 | 22 | 89 | 20.9 | 33.8 | 0.00 | 0.00 | 0.00 | 51 | 1010.3 |
| 20260507135003 | 22 | 88 | 14.5 | 29.0 | 0.00 | 0.00 | 0.00 | 50 | 1010.3 |
| 20260507134503 | 23 | 140 | 6.4 | 24.1 | 0.00 | 0.00 | 0.00 | 49 | 1010.4 |
| 20260507134003 | 23 | 190 | 6.4 | 16.1 | 0.00 | 0.00 | 0.00 | 47 | 1010.1 |
| 20260507133503 | 23 | 168 | 4.8 | 16.1 | 0.00 | 0.00 | 0.00 | 45 | 1010.3 |
| 20260507133003 | 23 | 85 | 3.2 | 11.3 | 0.00 | 0.00 | 0.00 | 47 | 1010.2 |
| 20260507132503 | 23 | 186 | 4.8 | 11.3 | 0.00 | 0.00 | 0.00 | 46 | 1010.3 |
| 20260507132003 | 23 | 223 | 6.4 | 14.5 | 0.00 | 0.00 | 0.00 | 47 | 1010.4 |
| 20260507131503 | 22 | 212 | 8.0 | 17.7 | 0.00 | 0.00 | 0.00 | 46 | 1010.3 |
| 20260507131002 | 22 | 199 | 9.7 | 17.7 | 0.00 | 0.00 | 0.00 | 46 | 1010.4 |
| 20260507130503 | 22 | 191 | 8.0 | 17.7 | 0.00 | 0.00 | 0.00 | 47 | 1010.6 |
| 20260507130003 | 22 | 176 | 6.4 | 16.1 | 0.00 | 0.00 | 0.00 | 48 | 1010.7 |
| 20260507125503 | 22 | 180 | 9.7 | 19.3 | 0.00 | 0.00 | 0.00 | 48 | 1010.7 |
| 20260507125003 | 22 | 194 | 9.7 | 19.3 | 0.00 | 0.00 | 0.00 | 48 | 1010.5 |
| 20260507124503 | 22 | 187 | 9.7 | 16.1 | 0.00 | 0.00 | 0.00 | 48 | 1010.8 |
| 20260507124003 | 22 | 179 | 9.7 | 16.1 | 0.00 | 0.00 | 0.00 | 49 | 1010.7 |
| 20260507123503 | 22 | 175 | 8.0 | 16.1 | 0.00 | 0.00 | 0.00 | 49 | 1010.6 |
| 20260507123003 | 22 | 171 | 6.4 | 12.9 | 0.00 | 0.00 | 0.00 | 49 | 1010.5 |
| 20260507122503 | 22 | 176 | 4.8 | 16.1 | 0.00 | 0.00 | 0.00 | 49 | 1010.5 |
| 20260507122004 | 22 | 171 | 6.4 | 16.1 | 0.00 | 0.00 | 0.00 | 48 | 1010.4 |
| 20260506191502 | 18 | 218 | 9.7 | 12.9 | 0.00 | 0.00 | 0.00 | 61 | 1012.4 |
| 20260506191002 | 18 | 223 | 9.7 | 17.7 | 0.00 | 0.00 | 0.00 | 61 | 1012.3 |
| 20260506190502 | 18 | 220 | 11.3 | 17.7 | 0.00 | 0.00 | 0.00 | 60 | 1012.2 |
| 20260506190002 | 18 | 218 | 11.3 | 17.7 | 0.00 | 0.00 | 0.00 | 59 | 1012.2 |
| 20260506185502 | 18 | 215 | 11.3 | 17.7 | 0.00 | 0.00 | 0.00 | 59 | 1012.3 |
| 20260506185002 | 18 | 212 | 11.3 | 16.1 | 0.00 | 0.00 | 0.00 | 63 | 1012.3 |
| 20260506184502 | 18 | 212 | 11.3 | 17.7 | 0.00 | 0.00 | 0.00 | 64 | 1011.9 |
| 20260506184002 | 18 | 214 | 12.9 | 20.9 | 0.00 | 0.00 | 0.00 | 65 | 1011.9 |
| 20260506183503 | 18 | 220 | 12.9 | 20.9 | 0.00 | 0.00 | 0.00 | 65 | 1011.9 |
| 20260506183002 | 18 | 228 | 11.3 | 17.7 | 0.00 | 0.00 | 0.00 | 64 | 1011.9 |
| 20260506182503 | 19 | 225 | 9.7 | 14.5 | 0.00 | 0.00 | 0.00 | 63 | 1012.0 |
| 20260506182002 | 19 | 222 | 9.7 | 14.5 | 0.00 | 0.00 | 0.00 | 61 | 1012.1 |
| 20260506181502 | 20 | 224 | 8.0 | 9.7 | 0.00 | 0.00 | 0.00 | 58 | 1012.4 |
| 20260506181002 | 20 | 226 | 9.7 | 17.7 | 0.00 | 0.00 | 0.00 | 55 | 1012.5 |
| 20260506180503 | 20 | 230 | 9.7 | 17.7 | 0.00 | 0.00 | 0.00 | 52 | 1012.5 |
| 20260506180003 | 20 | 235 | 9.7 | 19.3 | 0.00 | 0.00 | 0.00 | 51 | 1012.2 |
| 20260506175502 | 20 | 237 | 11.3 | 19.3 | 0.00 | 0.00 | 0.00 | 49 | 1012.1 |
| 20260506175002 | 20 | 230 | 11.3 | 16.1 | 0.00 | 0.00 | 0.00 | 50 | 1012.1 |
| 20260506174502 | 20 | 226 | 9.7 | 16.1 | 0.00 | 0.00 | 0.00 | 50 | 1012.2 |
| 20260506174003 | 20 | 241 | 4.8 | 12.9 | 0.00 | 0.00 | 0.00 | 53 | 1012.2 |
| 20260506173502 | 20 | 348 | 1.6 | 6.4 | 0.00 | 0.00 | 0.00 | 58 | 1012.3 |
| 20260506173002 | 20 | 9 | 3.2 | 8.0 | 0.00 | 0.00 | 0.00 | 58 | 1012.6 |
| 20260506172502 | 21 | 348 | 3.2 | 8.0 | 0.00 | 0.00 | 0.00 | 52 | 1012.8 |
| 20260506172002 | 21 | 301 | 4.8 | 12.9 | 0.00 | 0.00 | 0.00 | 45 | 1012.7 |
| 20260506171503 | 21 | 287 | 3.2 | 12.9 | 0.00 | 0.00 | 0.00 | 43 | 1012.7 |
| 20260506171002 | 20 | 327 | 1.6 | 8.0 | 0.00 | 0.00 | 0.00 | 57 | 1012.6 |
| 20260506170502 | 20 | 347 | 1.6 | 6.4 | 0.00 | 0.00 | 0.00 | 58 | 1012.7 |
| 20260506170002 | 20 | 360 | 3.2 | 9.7 | 0.00 | 0.00 | 0.00 | 57 | 1012.8 |
| 20260506165503 | 21 | 2 | 3.2 | 9.7 | 0.00 | 0.00 | 0.00 | 54 | 1012.8 |
| 20260506165002 | 21 | 337 | 3.2 | 8.0 | 0.00 | 0.00 | 0.00 | 46 | 1012.8 |
| 20260506164503 | 21 | 307 | 3.2 | 8.0 | 0.00 | 0.00 | 0.00 | 41 | 1012.8 |
| 20260506164002 | 21 | 230 | 1.6 | 6.4 | 0.00 | 0.00 | 0.00 | 43 | 1012.9 |
| 20260506163502 | 21 | 0 | 0.0 | 0.0 | 0.00 | 0.00 | 0.00 | 47 | 1013.1 |
| 20260506163003 | 21 | 0 | 0.0 | 0.0 | 0.00 | 0.00 | 0.00 | 52 | 1013.0 |